Provo, UT

4:02 PM MST on December 14, 2017 (GMT -0700)
Provo Municipal

Weather History for KPVU - November, 2013

Change the Weather History Date:

Wednesday, November 20, 2013

  Actual Average Record
Temperature  
Mean Temperature 42 °F -  
Max Temperature 48 °F 43 °F 63 °F (2016)
Min Temperature 35 °F 27 °F 17 °F (2000)
Degree Days  
Heating Degree Days 24    
Moisture  
Dew Point 38 °F    
Average Humidity 88    
Maximum Humidity 93    
Minimum Humidity 66    
Precipitation  
Precipitation 0.00 in - - ()
Sea Level Pressure  
Sea Level Pressure 29.90 in    
Wind  
Wind Speed 2 mph (SE)    
Max Wind Speed 8 mph    
Max Gust Speed -    
Visibility 11 miles    
Events Rain    
Averages and records for this station are not official NWS values.
T = Trace of Precipitation, MM = Missing Value Source: NWS Daily Summary

Daily Weather History Graph

Daily Weather History Graph

Search for Another Location

Airport or City:

Trip Planner

Search our weather history database for the weather conditions in past years. The results will help you decide how hot, cold, wet, or windy it might be!

Date:

Astronomy

Nov. 20, 2013 Rise Set
Actual Time 7:18 AM MST 5:06 PM MST
Civil Twilight 6:49 AM MST 5:35 PM MST
Nautical Twilight 6:15 AM MST 6:08 PM MST
Astronomical Twilight 5:43 AM MST 6:41 PM MST
Moon 7:52 PM MST (11/20) 9:46 AM MST (11/20)
Length of Visible Light 10h 46m
Length of Day
9h 47m
Waning Gibbous, 91% of the Moon is Illuminated
Nov 20
Waning Gibbous
Nov 25
Last Quarter
Dec 2
New
Dec 9
First Quarter
Dec 17
Full

Hourly Weather History & Observations

Time (MST) Temp. Windchill Dew Point Humidity Pressure Visibility Wind Dir Wind Speed Gust Speed Precip Events Conditions
12:15 AM 39.2 °F - 37.4 °F 93% 29.94 in 10.0 mi Calm Calm - N/A   Mostly Cloudy
12:35 AM 39.2 °F 37.0 °F 37.4 °F 93% 29.94 in 10.0 mi SSE 3.5 mph - N/A   Scattered Clouds
12:55 AM 39.2 °F 37.0 °F 35.6 °F 87% 29.94 in 10.0 mi South 3.5 mph - N/A   Mostly Cloudy
1:15 AM 39.2 °F 37.0 °F 37.4 °F 93% 29.94 in 10.0 mi South 3.5 mph - N/A   Overcast
1:35 AM 39.2 °F 35.9 °F 37.4 °F 93% 29.94 in 10.0 mi SE 4.6 mph - N/A   Overcast
1:55 AM 39.2 °F 35.9 °F 37.4 °F 93% 29.94 in 10.0 mi South 4.6 mph - N/A   Overcast
2:15 AM 39.2 °F - 37.4 °F 93% 29.93 in 10.0 mi Calm Calm - N/A   Overcast
2:35 AM 39.2 °F - 37.4 °F 93% 29.94 in 10.0 mi Calm Calm - N/A   Overcast
2:55 AM 39.2 °F - 37.4 °F 93% 29.94 in 10.0 mi Calm Calm - N/A   Overcast
3:15 AM 39.2 °F - 37.4 °F 93% 29.94 in 10.0 mi Calm Calm - N/A   Overcast
3:35 AM 39.2 °F 35.9 °F 37.4 °F 93% 29.93 in 10.0 mi NE 4.6 mph - N/A   Overcast
3:55 AM 39.2 °F - 37.4 °F 93% 29.92 in 10.0 mi Calm Calm - N/A   Overcast
4:15 AM 39.2 °F - 37.4 °F 93% 29.92 in 10.0 mi Calm Calm - N/A   Overcast
4:35 AM 39.2 °F - 37.4 °F 93% 29.91 in 10.0 mi Calm Calm - N/A   Overcast
4:55 AM 39.2 °F - 37.4 °F 93% 29.91 in 10.0 mi Calm Calm - N/A   Overcast
5:15 AM 39.2 °F - 35.6 °F 87% 29.91 in 10.0 mi Calm Calm - N/A   Overcast
5:35 AM 39.2 °F - 35.6 °F 87% 29.90 in 10.0 mi Calm Calm - N/A   Overcast
5:55 AM 39.2 °F - 35.6 °F 87% 29.90 in 10.0 mi Calm Calm - N/A   Overcast
6:15 AM 39.2 °F 35.9 °F 37.4 °F 93% 29.90 in 10.0 mi ESE 4.6 mph - N/A   Mostly Cloudy
6:35 AM 37.4 °F 32.8 °F 33.8 °F 87% 29.90 in 10.0 mi SE 5.8 mph - N/A   Partly Cloudy
6:53 AM 35.6 °F 29.9 °F 32.0 °F 87% 29.90 in 15.0 mi South 6.9 mph - N/A   Scattered Clouds
6:55 AM 35.6 °F 29.2 °F 30.2 °F 81% 29.90 in 10.0 mi South 8.1 mph - N/A   Clear
7:53 AM 35.6 °F 30.7 °F 33.8 °F 93% 29.91 in 15.0 mi ENE 5.8 mph - N/A   Mostly Cloudy
8:49 AM 42.8 °F 40.1 °F 37.4 °F 81% 29.91 in 15.0 mi SSW 4.6 mph - N/A   Mostly Cloudy
9:53 AM 44.6 °F - 37.4 °F 76% 29.90 in 15.0 mi Calm Calm - N/A   Mostly Cloudy
10:47 AM 42.8 °F 41.1 °F 37.4 °F 81% 29.90 in 15.0 mi NNW 3.5 mph - N/A   Overcast
11:47 AM 48.2 °F - 37.4 °F 66% 29.88 in 15.0 mi SSE 5.8 mph - N/A   Overcast
12:47 PM 44.6 °F 43.1 °F 37.4 °F 76% 29.86 in 15.0 mi WSW 3.5 mph - N/A   Mostly Cloudy
1:49 PM 44.6 °F - 39.2 °F 81% 29.86 in 15.0 mi Calm Calm - N/A Rain Light Rain
2:47 PM 44.6 °F - 39.2 °F 81% 29.86 in 7.0 mi Calm Calm - N/A Rain Light Rain
3:52 PM 46.4 °F 45.2 °F 41.0 °F 81% 29.86 in 7.0 mi ESE 3.5 mph - N/A Rain Light Rain
4:55 PM 44.6 °F - 39.2 °F 81% 29.86 in 15.0 mi Calm Calm - N/A   Overcast
5:59 PM 44.6 °F - 39.2 °F 81% 29.87 in 15.0 mi Calm Calm - N/A   Mostly Cloudy
6:47 PM 44.6 °F - 41.0 °F 87% 29.86 in 15.0 mi Calm Calm - N/A   Mostly Cloudy
7:47 PM 42.8 °F - 39.2 °F 87% 29.87 in 15.0 mi Calm Calm - N/A Rain Light Rain
8:50 PM 44.6 °F 42.2 °F 39.2 °F 81% 29.88 in 15.0 mi ESE 4.6 mph - N/A Rain Light Rain
9:15 PM 42.8 °F 40.1 °F 39.2 °F 87% 29.88 in 10.0 mi East 4.6 mph - N/A   Overcast
9:35 PM 42.8 °F 39.3 °F 41.0 °F 93% 29.88 in 10.0 mi East 5.8 mph - N/A   Overcast
9:55 PM 42.8 °F 39.3 °F 41.0 °F 93% 29.88 in 10.0 mi East 5.8 mph - N/A   Overcast
10:15 PM 42.8 °F 40.1 °F 41.0 °F 93% 29.87 in 10.0 mi East 4.6 mph - N/A   Overcast
10:35 PM 42.8 °F - 41.0 °F 93% 29.88 in 10.0 mi Calm Calm - N/A   Overcast
10:55 PM 42.8 °F - 41.0 °F 93% 29.88 in 10.0 mi Calm Calm - N/A   Overcast
11:15 PM 42.8 °F 41.1 °F 39.2 °F 87% 29.88 in 10.0 mi SSE 3.5 mph - N/A   Overcast
11:35 PM 42.8 °F - 39.2 °F 87% 29.89 in 6.0 mi Calm Calm - N/A   Overcast
11:55 PM 42.8 °F - 39.2 °F 87% 29.89 in 7.0 mi Calm Calm - N/A   Overcast